Flag for Greenland Weather past 2 weeks in Ittoqqortoormiit, Greenland

Now
18 °F

Passing clouds.


Feels Like: 7 °F
Forecast: -5 / 16 °F
Wind: 8 mph from Southeast

Location: Scoresbysund

Current Time: Mar 6, 2015 at 7:40:54 AM

Latest Report: Mar 6, 2015 at 6:00 AM


Visibility: 31 mi

Pressure: 29.15 "Hg

Humidity: 82%

Dew point: 13 °F

Location of IttoqqortoormiitLocation

Historic Weather in Ittoqqortoormiit — Graph

°F

Ittoqqortoormiit temperature yesterday

Maximum temperature yesterday: 23 °F (at 10:00 AM)
Minimum temperature yesterday: 15 °F (at 12:00 AM)
Average temperature yesterday: 20 °F

Past Weeks' High & Low Weather Summary

 TemperatureHumidityPressure
High26 °F (Feb 28, 12:00 PM)99% (Feb 27, 2:00 PM)29.99 "Hg (Feb 27, 2:00 PM)
Low-15 °F (Feb 22, 10:00 PM)34% (Feb 22, 9:00 AM)28.94 "Hg (Mar 5, 8:00 AM)
Average8 °F64%29.46 "Hg
* Reported Feb 19 6:00 AM — Mar 6 6:00 AM, Ittoqqortoormiit, Weather by CustomWeather, © 2015

Note: Actual official high and low records may vary slightly from our data, if they occured in-between our weather recording intervals... More about our weather records

Advertising

Ittoqqortoormiit weather history for previous 24 hours

 ConditionsComfort  
Time TempWeatherWind HumidityBarometerVisibility
6:00 AM
Fri, Mar 6
18 °FPassing clouds.8 mph82%29.15 "Hg31 mi
5:00 AM18 °FClear.10 mph88%29.15 "Hg31 mi
4:00 AM14 °FClear.6 mph81%29.15 "Hg31 mi
3:00 AM13 °FClear.5 mph68%29.15 "Hg31 mi
2:00 AM15 °FPassing clouds.5 mph71%29.15 "Hg31 mi
1:00 AM16 °FPassing clouds.6 mph71%29.15 "Hg31 mi
12:00 AM14 °FPassing clouds.3 mph75%29.15 "Hg31 mi
11:00 PM
Thu, Mar 5
18 °FPassing clouds.5 mph66%29.15 "Hg31 mi
10:00 PM19 °FPassing clouds.3 mph67%29.12 "Hg31 mi
9:00 PM18 °FOvercast.2 mph69%29.12 "Hg31 mi
7:00 PM19 °FOvercast.6 mph71%29.09 "Hg31 mi
6:00 PM20 °FOvercast.6 mph69%29.06 "Hg31 mi
5:00 PM21 °FSnow flurries. Overcast.17 mph67%29.06 "Hg19 mi
4:00 PM21 °FSnow flurries. Overcast.21 mph67%29.03 "Hg4 mi
3:00 PM21 °FSnow flurries. Overcast.17 mph70%29.03 "Hg16 mi
2:00 PM19 °FLight snow. Ice fog.23 mph83%29.00 "Hg1 mi
1:00 PM20 °FLight snow. Ice fog.18 mph90%29.00 "Hg1 mi
12:00 PM20 °FLight snow. Ice fog.17 mph93%29.00 "Hg1 mi
11:00 AM22 °FSnow. Low clouds.14 mph93%29.00 "Hg1 mi
10:00 AM23 °FLow clouds.20 mph94%28.97 "HgN/A
9:00 AM22 °FSnow. Low clouds.37 mph96%28.94 "Hg0 mi
8:00 AM21 °FSnow. Low clouds.39 mph96%28.94 "Hg0 mi
7:00 AM21 °FSnow. Low clouds.33 mph96%29.00 "Hg0 mi
Weather by CustomWeather, © 2015

See weather overviewHow to use our weather pages